Weather History for Columbia, MO

Change the Weather History Date:

Monday, December 2, 2013

  Actual Average Record
Temperature  
Mean Temperature 44 °F 37 °F  
Max Temperature 54 °F 45 °F 72 °F (1917)
Min Temperature 34 °F 28 °F 5 °F (1985)
Degree Days  
Heating Degree Days 21 28  
Month to date heating degree days 42 56  
Since 1 July heating degree days 1049 1041  
Cooling Degree Days 0 0  
Month to date cooling degree days 0 0  
Year to date cooling degree days 1322 1249  
Moisture  
Dew Point 38 °F    
Average Humidity 81    
Maximum Humidity 96    
Minimum Humidity 66    
Precipitation  
Precipitation 0.00 in 0.09 in 2.71 in (1982)
Month to date precipitation 0.00 0.19  
Year to date precipitation 39.81 40.37  
Snow  
Snow 0.00 in 0.10 in 2.80 in (1967)
Month to date snowfall 0.0 0.2  
Since 1 July snowfall 0.0 1.1  
Snow Depth 0.00 in    
Sea Level Pressure  
Sea Level Pressure 29.75 in    
Wind  
Wind Speed 7 mph (SSE)    
Max Wind Speed 13 mph    
Max Gust Speed 15 mph    
Visibility 9 miles    
Events      
T = Trace of Precipitation, MM = Missing Value Source: NWS Daily Summary

Daily Weather History Graph

Daily Weather History Graph

Search for Another Location

Airport:

Trip Planner

Search our weather history database for the weather conditions in past years. The results will help you decide how hot, cold, wet, or windy it might be!

Date:

Astronomy

Dec. 02, 2013 Rise Set
Actual Time 7:09 AM CST 4:47 PM CST
Civil Twilight 6:40 AM CST 5:16 PM CST
Nautical Twilight 6:06 AM CST 5:49 PM CST
Astronomical Twilight 5:34 AM CST 6:21 PM CST
Moon 6:35 AM CST (12/2) 4:50 PM CST (12/2)
Length of Visible Light 10h 36m
Length of Day
9h 37m
Waning Crescent, 0% of the Moon is Illuminated
Dec 2
Waning Crescent
Dec 2
New
Dec 9
First Quarter
Dec 17
Full
Dec 25
Last Quarter

Hourly Weather History & Observations

Time (CST) Temp. Windchill Dew Point Humidity Pressure Visibility Wind Dir Wind Speed Gust Speed Precip Events Conditions
12:54 AM 42.1 °F 39.2 °F 33.1 °F 70% 29.88 in 10.0 mi East 4.6 mph - N/A   Overcast
1:54 AM 41.0 °F 38.0 °F 33.1 °F 73% 29.87 in 10.0 mi East 4.6 mph - N/A   Overcast
2:54 AM 39.9 °F 35.8 °F 33.1 °F 77% 29.86 in 10.0 mi East 5.8 mph - N/A   Overcast
3:54 AM 37.9 °F 32.7 °F 32.0 °F 79% 29.84 in 10.0 mi East 6.9 mph - N/A   Clear
4:54 AM 37.0 °F 32.4 °F 30.9 °F 79% 29.83 in 10.0 mi East 5.8 mph - N/A   Clear
5:54 AM 37.0 °F 33.3 °F 32.0 °F 82% 29.81 in 10.0 mi ESE 4.6 mph - N/A   Clear
6:54 AM 35.1 °F 31.0 °F 30.9 °F 85% 29.82 in 9.0 mi South 4.6 mph - N/A   Clear
7:54 AM 36.0 °F 32.1 °F 33.1 °F 89% 29.82 in 7.0 mi SSW 4.6 mph - N/A   Clear
8:21 AM 37.9 °F 35.5 °F 33.1 °F 83% 29.80 in 8.0 mi SSE 3.5 mph - N/A   Scattered Clouds
8:29 AM 39.0 °F 36.8 °F 34.0 °F 82% 29.79 in 9.0 mi SE 3.5 mph - N/A   Mostly Cloudy
8:39 AM 39.9 °F 36.7 °F 35.1 °F 83% 29.79 in 9.0 mi SE 4.6 mph - N/A   Overcast
8:54 AM 41.0 °F 38.0 °F 36.0 °F 82% 29.79 in 9.0 mi SE 4.6 mph - N/A   Overcast
9:54 AM 44.1 °F 40.1 °F 39.0 °F 82% 29.79 in 8.0 mi South 6.9 mph - N/A   Overcast
10:54 AM 46.0 °F 41.9 °F 42.1 °F 86% 29.77 in 6.0 mi South 8.1 mph - N/A   Overcast
11:54 AM 46.9 °F - 43.0 °F 86% 29.74 in 7.0 mi SW 6.9 mph - N/A   Overcast
12:54 PM 48.9 °F - 43.0 °F 80% 29.72 in 10.0 mi South 9.2 mph - N/A   Overcast
1:22 PM 51.1 °F - 44.1 °F 77% 29.70 in 10.0 mi SSW 9.2 mph - N/A   Overcast
1:54 PM 53.1 °F - 44.1 °F 71% 29.70 in 10.0 mi SSW 8.1 mph - N/A   Partly Cloudy
2:54 PM 53.1 °F - 43.0 °F 69% 29.68 in 10.0 mi SSW 6.9 mph - N/A   Clear
3:54 PM 51.1 °F - 43.0 °F 74% 29.68 in 10.0 mi SSW 8.1 mph - N/A   Clear
4:54 PM 45.0 °F 41.8 °F 39.9 °F 82% 29.69 in 10.0 mi SSW 5.8 mph - N/A   Clear
5:54 PM 44.1 °F 41.5 °F 41.0 °F 89% 29.69 in 10.0 mi South 4.6 mph - N/A   Clear
6:54 PM 41.0 °F 35.8 °F 39.0 °F 93% 29.68 in 8.0 mi South 8.1 mph - N/A   Clear
7:54 PM 44.1 °F 39.0 °F 41.0 °F 89% 29.68 in 9.0 mi South 9.2 mph - N/A   Clear
8:54 PM 42.1 °F 37.1 °F 39.9 °F 92% 29.67 in 7.0 mi SSE 8.1 mph - N/A   Clear
9:54 PM 42.1 °F 37.1 °F 41.0 °F 96% 29.68 in 6.0 mi South 8.1 mph - N/A   Clear
10:54 PM 43.0 °F 38.2 °F 41.0 °F 93% 29.67 in 8.0 mi South 8.1 mph - N/A   Clear
11:54 PM 42.1 °F 38.4 °F 39.9 °F 92% 29.67 in 8.0 mi South 5.8 mph - N/A   Clear